SP1ZPL-13 Weather Reports


time (UTC)temp
F
wind
direction
speed
knots
gust
knots
rain 1hr
in
rain 24hr
in
rain mn
in
humidity
%
barometer
mb
20260901131529 72 210 5.2 13.0 0.00 0.00 0.00 60 1015.3
20260901130527 71 194 6.1 9.6 0.00 0.00 0.00 59 1015.2
20260901125524 74 152 7.8 16.5 0.00 0.00 0.00 51 1015.2
20260901124522 74 192 8.7 16.5 0.00 0.00 0.00 51 1015.2
20260901123519 72 179 6.1 13.9 0.00 0.00 0.00 57 1015.1
20260901122517 73 140 7.0 13.9 0.00 0.00 0.00 52 1015.2
20260901121549 73 128 7.0 17.4 0.00 0.00 0.00 55 1015.2
20260901120547 72 225 8.7 13.9 0.00 0.00 0.00 62 1015.1
20260901115524 71 144 4.3 7.8 0.00 0.00 0.00 69 1015.3
20260901114522 68 149 4.3 7.0 0.00 0.00 0.00 72 1015.4
20260901113519 66 173 4.3 7.0 0.00 0.00 0.00 73 1015.5
20260901112517 66 90 5.2 9.6 0.00 0.00 0.00 72 1015.6
20260901111515 66 155 7.8 13.0 0.00 0.00 0.00 71 1015.6
20260901110527 67 164 8.7 16.5 0.00 0.00 0.00 66 1015.3
20260901105545 70 173 10.4 18.2 0.00 0.00 0.00 61 1015.3
20260901104522 71 195 6.1 12.2 0.00 0.00 0.00 61 1015.0
20260901103520 71 123 7.8 14.8 0.00 0.00 0.00 61 1014.9
20260901102538 70 200 7.0 13.9 0.00 0.00 0.00 62 1014.8
20260901101515 70 119 6.1 12.2 0.00 0.00 0.00 64 1014.8
20260901100528 68 113 6.1 13.0 0.00 0.00 0.00 64 1014.8
20260901095525 69 226 5.2 10.4 0.00 0.00 0.00 62 1014.8
20260901094522 70 148 6.1 10.4 0.00 0.00 0.00 62 1014.7
20260901093520 70 145 7.8 12.2 0.00 0.00 0.00 62 1014.7
20260901092518 70 181 7.8 14.8 0.00 0.00 0.00 61 1014.5
20260901091515 71 136 7.0 14.8 0.00 0.00 0.00 62 1014.4
20260901090528 69 125 6.1 13.9 0.00 0.00 0.00 67 1014.5
20260901085525 67 150 6.1 10.4 0.00 0.00 0.00 69 1014.7
20260901084523 68 151 6.1 13.0 0.00 0.00 0.00 66 1014.5
20260901083520 69 142 7.0 13.0 0.00 0.00 0.00 64 1014.4
20260901082518 69 202 6.1 13.9 0.00 0.00 0.00 64 1014.3
20260901081515 69 215 6.1 13.0 0.00 0.00 0.00 64 1014.0
20260901080528 69 180 7.0 12.2 0.00 0.00 0.00 66 1014.0
20260901075525 68 110 6.1 9.6 0.00 0.00 0.00 68 1013.9